Regional Weather Roundup
Issued by NWS

Home | Current Version | Previous Version | Text Only | Print | Product List | Glossary On
Versions: 1 2 3 4 5 6 7 8 9 10 11 12 13 14 15 16 17 18 19 20 21 22 23 24 25 26 27 28 29 30 31 32 33 34 35 36 37 38 39 40 41 42 43 44 45 46 47 48 49 50
000
ASUS43 KFSD 211802
RWRSD

WEATHER ROUNDUP FOR SOUTH DAKOTA
NATIONAL WEATHER SERVICE SIOUX FALLS SD
100 PM CDT SAT OCT 21 2017

NOTE: "FAIR" INDICATES FEW OR NO CLOUDS BELOW 12,000 FEET WITH NO
SIGNIFICANT WEATHER AND/OR OBSTRUCTIONS TO VISIBILITY.


SDZ001>005-009-010-012>017-211900-
NORTHWEST AND NORTH CENTRAL SOUTH DAKOTA

CITY           SKY/WX    TMP DP  RH WIND       PRES   REMARKS
BUFFALO          N/A     53  29  39 NW43G52   29.70S
MOBRIDGE       CLOUDY    50  43  77 NW7       29.66F
$$

SDZ012>016-024>037-041>051-057-063-072>074-211900-
SOUTHWEST AND SOUTH CENTRAL SOUTH DAKOTA

CITY           SKY/WX    TMP DP  RH WIND       PRES   REMARKS
RAPID CTY ARPT CLOUDY    55  21  26 NW28G35   29.82F
PIERRE         CLOUDY    51  43  74 W12       29.75R
CUSTER         SUNNY     43  15  32 NW22G36   29.86R
ELLSWORTH AFB  CLOUDY    53  21  28 NW24G32   29.82R
PHILIP         CLOUDY    53  30  41 NW25G37   29.81R
PINE RIDGE     SUNNY     55  25  31 NW18G31   29.86S
SPEARFISH      FAIR      48  19  32 W15G32    29.86R
WINNER         LGT RAIN  48  41  76 NW13      29.80R
$$

SDZ004>011-016>023-039-040-211900-
NORTHEAST SOUTH DAKOTA

CITY           SKY/WX    TMP DP  RH WIND       PRES   REMARKS
ABERDEEN       CLOUDY    55  41  59 W26G35    29.62R
WATERTOWN      CLOUDY    51  48  89 W13G24    29.60R
BROOKINGS      LGT RAIN  53  46  77 NW21      29.62R
SISSETON         N/A     54  49  83 W14       29.55R
$$

SDZ017-020-022-023-036>040-048>070-211900-
SOUTHEAST SOUTH DAKOTA

CITY           SKY/WX    TMP DP  RH WIND       PRES   REMARKS
SIOUX FALLS    CLOUDY    60  48  64 W20G32    29.62R
HURON          CLOUDY    57  41  55 NW30G40   29.67R
CHAMBERLAIN    CLOUDY    50  42  75 NW18G29   29.76S
MITCHELL       CLOUDY    59  41  51 NW32G39   29.69R
YANKTON        CLOUDY    58  42  55 NW23G33   29.69R
$$

ABBREVIATIONS USED IN REMARKS
   TC - TEMPERATURE IN CELSIUS
  WCI - WIND CHILL INDEX
   HX - HEAT INDEX
  VSB - VISIBILITY




USA.gov is the U.S. government's official web portal to all federal, state and local government web resources and services.